TIME,DELAY(SENSOR),PRES,T(CTD),SAL,OXYGEN,RAWTEMP,T(OPTODE),TCPHASE,FLUOR,BETA(BETA700),BETA(BETA412),BETA(BETA440),CDOM,C(CSC),ED(ED411.90),ED(ED443.80),ED(ED489.40),ED(ED554.70),LU(LU412.20),LU(LU443.80),LU(LU489.40),LU(LU555.00),COMP,TILTX,TILTX(TILTY),CHECK
1343143857,5800,497.0499877929687500,17.0711994171142580,36.3825988769531250,223.8372039794922000,200.1123962402343800,17.0782699584960940,32.4752693176269500,49,107,101,85,67,15378,2147480475,2147774637,2147561024,2147799670,2147315181,2147476434,2147716169,2148245101,3449,7,13,24683
1343143984,5801,486.5700073242187500,17.2052001953125000,36.4103012084960940,227.9938964843750000,195.9474029541015600,17.2049598693847660,32.2069587707519500,50,106,100,83,66,15378,2147483190,2147770907,2147560539,2147799469,2147306596,2147471515,2147711963,2148245010,948,7,13,4316
1343144113,5799,475.9299926757812500,17.3183994293212900,36.4314002990722660,229.1217041015625000,192.3092956542968800,17.3156299591064450,32.1001586914062500,50,108,100,83,67,15376,2147477257,2147767113,2147559204,2147796269,2147308370,2147474806,2147704420,2148243456,1584,7,13,39822
1343144252,5802,464.3299865722656000,17.4025001525878900,36.4472999572753900,230.4772033691406200,189.5258026123047000,17.4003200531005860,31.9948596954345700,50,109,99,82,67,15376,2147480338,2147769234,2147557924,2147795949,2147314934,2147479945,2147707529,2148243044,1997,7,13,64786
1343144379,5801,454.1900024414062500,17.4838008880615230,36.4632987976074200,231.8549041748047000,186.8341064453125000,17.4822196960449220,31.8901596069335940,49,107,100,83,66,15373,2147482752,2147768173,2147560694,2147798674,2147304530,2147480045,2147705993,2148244452,1437,7,12,48498
1343144521,5804,441.8800048828125000,17.5867004394531250,36.4852981567382800,233.2736968994140600,183.4732971191406200,17.5844898223876950,31.7751502990722660,50,107,98,83,66,15377,2147485540,2147765933,2147560969,2147796726,2147310848,2147479213,2147707620,2148241508,1692,7,13,37002
1343144636,5804,431.5199890136719000,17.6585998535156250,36.4975013732910160,235.0554046630859400,181.1640930175781200,17.6547603607177730,31.6571998596191400,50,107,99,83,66,15377,2147486701,2147768228,2147560886,2147796278,2147310400,2147479158,2147709028,2148244041,2633,7,13,14431
1343144765,5806,419.6400146484375000,17.7229003906250000,36.5089988708496100,235.5437011718750000,178.9093017578125000,17.7233905792236330,31.6032104492187500,49,106,100,85,67,15377,2147484653,2147767168,2147558683,2147795410,2147314084,2147477421,2147708160,2148246811,327,7,13,46159
1343144892,5803,407.8599853515625000,17.7840995788574220,36.5199012756347660,236.1432037353515600,176.9365997314453000,17.7834396362304700,31.5476493835449220,50,106,99,83,66,15377,2147483794,2147765970,2147559030,2147796571,2147311204,2147479131,2147705755,2148237604,610,7,13,12191
1343145007,5805,397.0599975585937500,17.8374004364013670,36.5284004211425800,236.5614013671875000,175.2080993652343800,17.8360595703125000,31.5043392181396500,50,107,99,85,67,15377,2147483492,2147766144,2147557540,2147796790,2147305088,2147476425,2147706267,2148241060,900,7,12,64595
1343145125,5802,386.1099853515625000,17.9023990631103500,36.5406990051269500,237.6990051269531200,173.1047058105468800,17.9001007080078120,31.4217090606689450,50,108,99,82,66,15376,2147485705,2147765933,2147555419,2147794688,2147313188,2147478299,2147705307,2148242386,1076,7,13,25804
1343145240,5804,375.5299987792969000,17.9547996520996100,36.5485992431640600,238.0525054931640600,171.3677978515625000,17.9529800415039060,31.3817691802978500,50,107,98,84,66,15374,2147486162,2147767945,2147558080,2147794797,2147305225,2147479369,2147703643,2148243062,1628,7,13,23063
1343145369,5802,363.9299926757812500,18.0004005432128900,36.5550003051757800,237.4356994628906200,169.7895050048828000,18.0010395050048830,31.3896503448486330,50,110,99,83,67,15373,2147489234,2147765266,2147559872,2147796315,2147313289,2147478692,2147704722,2148238317,1800,7,13,35637
1343145496,5801,352.8200073242187500,18.0496997833251950,36.5620002746582000,237.1396026611328000,168.3296966552734400,18.0454902648925780,31.3840808868408200,50,107,99,85,67,15337,2147485705,2147765824,2147559981,2147794953,2147304649,2147483584,2147704365,2148240621,2657,7,13,13237
1343145635,5804,341.1799926757812500,18.0820999145507800,36.5648002624511700,236.5800018310547000,167.1869049072265600,18.0802993774414060,31.3954296112060550,50,107,101,85,67,15374,2147484827,2147764598,2147561051,2147792813,2147302253,2147478802,2147709010,2148240457,3342,7,12,29049
1343145765,5804,330.8200073242187500,18.1413002014160160,36.5705986022949200,235.7850952148437500,165.2682952880859400,18.1387290954589840,31.4078006744384770,50,107,99,84,66,15373,2147488722,2147765677,2147562962,2147795190,2147312009,2147476553,2147702756,2148240384,463,7,12,8954
1343145916,5805,319.4299926757812500,18.1949005126953120,36.5769996643066400,235.2344970703125000,163.4602050781250000,18.1938095092773440,31.4100303649902340,50,108,100,84,67,15373,2147487085,2147767945,2147561334,2147793408,2147302720,2147477184,2147705078,2148242541,969,7,12,59784
1343146063,5803,307.4800109863281000,18.2619991302490230,36.5811004638671900,233.6808013916015600,161.3565979003906200,18.2578907012939450,31.4563808441162100,49,110,100,84,66,15372,2147485952,2147769417,2147567104,2147792585,2147316425,2147482733,2147703442,2148240091,1007,7,12,48375
1343146190,5805,295.6000061035156000,18.3194007873535160,36.5872993469238300,232.6082000732422000,159.3623962402343800,18.3186492919921880,31.4817695617675780,50,111,100,85,67,15369,2147490368,2147768448,2147571794,2147794514,2147304521,2147483584,2147713133,2148240996,659,7,12,62961
1343146319,5805,283.6300048828125000,18.4381008148193360,36.5970993041992200,231.2312011718750000,155.6130981445312500,18.4328994750976560,31.4984893798828120,50,110,99,85,67,15367,2147487862,2147773467,2147572937,2147791826,2147303186,2147480466,2147716891,2148238025,1401,7,12,8554
1343146446,5802,272.0100097656250000,18.5424995422363280,36.6026992797851560,229.2743988037109400,152.0204010009765600,18.5424003601074220,31.5462303161621100,50,110,100,86,67,15365,2147489170,2147769353,2147574838,2147794112,2147309001,2147483254,2147716772,2148238720,1642,8,12,34868
1343146561,5800,261.3299865722656000,18.6585998535156250,36.6040000915527340,228.3907928466797000,148.3238983154297000,18.6550903320312500,31.5403804779052730,50,111,100,85,66,15366,2147487762,2147771108,2147577188,2147792969,2147304539,2147482176,2147717741,2148238793,2337,7,12,37508
1343146679,5803,250.1699981689453000,18.7565994262695300,36.6012992858886700,230.0637969970703000,145.2525024414062500,18.7487506866455080,31.4168090820312500,50,111,98,85,66,15366,2147490112,2147772242,2147582628,2147796333,2147305435,2147490642,2147721142,2148239707,3133,8,12,8530
1343146794,5803,239.1000061035156200,18.8530998229980470,36.5904998779296900,233.9665985107422000,141.9022979736328000,18.8509292602539060,31.1826190948486330,50,112,100,84,66,15369,2147488795,2147776265,2147590857,2147794404,2147306578,2147487268,2147720356,2148239926,321,6,12,42880
1343146909,5805,228.0000000000000000,18.9831008911132800,36.5789985656738300,240.4049072265625000,137.6903991699218800,18.9794292449951170,30.8229999542236330,50,109,99,86,66,15363,2147489270,2147778742,2147602596,2147793691,2147308498,2147491026,2147730925,2148239451,323,8,12,30902
1343147027,5801,216.8600006103515600,19.0436000823974600,36.5755996704101560,244.8899993896484400,135.6450958251953000,19.0418395996093750,30.5900993347167970,50,108,99,85,65,15366,2147490340,2147785645,2147616118,2147793024,2147305142,2147496722,2147739584,2148239268,405,7,12,24751
1343147142,5804,206.5099945068359400,19.0788993835449220,36.5690994262695300,248.3847045898437500,134.4729003906250000,19.0776195526123050,30.4175395965576170,50,109,100,85,65,15368,2147491904,2147791670,2147636699,2147790363,2147309376,2147501394,2147750528,2148238838,927,7,12,26045
1343147245,5803,197.7599945068359400,19.1091003417968750,36.5668983459472660,250.7966003417968800,133.6271057128906200,19.1034393310546880,30.2994308471679700,50,111,100,83,65,15367,2147494966,2147803584,2147663762,2147792758,2147302957,2147506669,2147768768,2148239972,1872,7,12,20626
1343147321,5801,191.7400054931640600,19.1128997802734380,36.5603981018066400,252.4640045166015600,133.3766021728515600,19.1110801696777340,30.2229194641113280,49,110,100,84,64,15365,2147499035,2147810934,2147681965,2147794011,2147311872,2147512228,2147779126,2148240493,2006,7,12,24717
1343147376,5804,187.8099975585937500,19.1359004974365230,36.5606994628906250,253.0906982421875000,132.6477050781250000,19.1333293914794920,30.1860904693603500,51,109,99,84,64,15367,2147498788,2147818020,2147701997,2147790857,2147315117,2147514194,2147790710,2148239204,2190,7,13,56617
1343147431,5803,183.8999938964843800,19.1523990631103500,36.5610008239746100,253.5464935302734400,131.9734954833984400,19.1539096832275400,30.1576900482177730,50,110,99,85,64,15366,2147496786,2147827254,2147723382,2147792356,2147308937,2147525257,2147799021,2148242550,2480,7,12,42404
1343147486,5806,180.0399932861328000,19.1629009246826170,36.5587997436523440,254.2218017578125000,131.8005065917968800,19.1591892242431640,30.1259994506835940,50,110,101,85,64,15366,2147502281,2147835510,2147748955,2147791186,2147314240,2147536301,2147815981,2148242706,3508,7,12,8828
1343147541,5803,176.2200012207031200,19.1634998321533200,36.5567016601562500,254.5917053222656200,131.6759948730468800,19.1629905700683600,30.1083602905273440,50,111,101,86,64,15366,2147499382,2147852544,2147780745,2147791762,2147319753,2147544832,2147835584,2148242788,382,7,12,26014
1343147630,5805,170.5200042724609400,19.1982002258300780,36.5619010925293000,254.7126007080078000,130.7507019042968800,19.1912498474121100,30.0910396575927730,50,116,99,84,65,15363,2147509467,2147879734,2147843812,2147789961,2147312283,2147568667,2147871890,2148246500,650,7,13,49021
1343147709,5801,166.1699981689453000,19.1921005249023440,36.5564002990722660,254.7597961425781200,130.7149047851562500,19.1923408508300780,30.0884704589843750,52,117,100,85,64,15361,2147516918,2147905380,2147912786,2147792484,2147315529,2147578715,2147913069,2148252379,764,7,13,30032
1343147776,5804,162.4199981689453000,19.2003002166748050,36.5545997619628900,255.1062927246093800,130.5167999267578000,19.1983890533447270,30.0711708068847660,52,119,100,85,64,15357,2147516964,2147937289,2147980096,2147791296,2147319277,2147598729,2147955099,2148249874,894,7,12,11687
1343147855,5803,157.9499969482422000,19.2388000488281250,36.5588989257812500,254.8547058105468800,129.2281036376953000,19.2377300262451170,30.0651397705078120,54,120,100,86,63,15351,2147534491,2147972672,2148064777,2147790491,2147332169,2147627328,2148011209,2148256201,1065,7,12,59603
1343147913,5805,154.5399932861328000,19.2404994964599600,36.5569992065429700,254.9468994140625000,129.1994018554687500,19.2386093139648440,30.0608806610107420,56,123,101,86,64,15350,2147537060,2148007945,2148152384,2147791744,2147336978,2147651776,2148062564,2148255387,1202,7,12,19264
1343147968,5801,151.2899932861328000,19.2682991027832030,36.5620002746582000,254.8959960937500000,128.3576049804687500,19.2643108367919920,30.0520706176757800,61,124,100,87,64,15346,2147548324,2148044809,2148232365,2147793572,2147332900,2147677504,2148108672,2148259702,1126,7,13,18641
1343148035,5803,147.1799926757812500,19.2817993164062500,36.5644989013671900,254.8374023437500000,127.9962997436523400,19.2753505706787100,30.0498504638671880,67,126,102,89,64,15337,2147558454,2148089124,2148328576,2147795026,2147345718,2147706130,2148162267,2148261458,1420,7,12,36283
1343148102,5801,143.0800018310547000,19.2833995819091800,36.5634002685546900,254.9665069580078000,127.8001022338867200,19.2813396453857420,30.0417194366455080,65,129,102,87,64,15335,2147573952,2148143140,2148446272,2147795693,2147354660,2147738166,2148230043,2148265188,1864,7,12,26149
1343148169,5801,139.0700073242187500,19.2973995208740230,36.5606994628906250,255.0108032226562500,127.3861007690429700,19.2939796447753900,30.0346794128417970,72,128,101,88,62,15326,2147588699,2148189549,2148541275,2147798912,2147355721,2147763008,2148278765,2148268114,2076,7,12,30829
1343148247,5803,135.0700073242187500,19.3064994812011720,36.5619010925293000,254.7823028564453000,127.0451965332031200,19.3043899536132800,30.0399894714355470,76,130,103,87,63,15317,2147616164,2148263497,2148692772,2147796873,2147371145,2147805494,2148368246,2148276480,2671,7,13,58289
1343148338,5804,131.7299957275390600,19.3306007385253900,36.5635986328125000,254.4127960205078000,126.3214035034179700,19.3264999389648440,30.0467395782470700,83,139,104,89,63,15306,2147640950,2148356342,2148876141,2147801700,2147389942,2147863424,2148462546,2148279817,2822,7,13,61106
1343148453,5803,127.8099975585937500,19.3498001098632800,36.5644989013671900,254.3088989257812500,125.6305999755859400,19.3476009368896500,30.0420703887939450,86,136,103,87,64,15303,2147689078,2148489874,2149153563,2147802998,2147408713,2147936969,2148610706,2148291264,2355,7,12,45207
1343148565,5803,123.4800033569336000,19.3782997131347660,36.5668983459472660,253.9351043701172000,124.7202987670898400,19.3754005432128900,30.0467605590820300,91,139,104,87,63,15292,2147704859,2148503588,2149145901,2147803218,2147419785,2147936173,2148585042,2148291629,2085,7,13,25915
1343148644,5803,119.5800018310546900,19.4088993072509770,36.5693016052246100,254.0057067871093800,123.7417984008789000,19.4052906036376950,30.0309104919433600,108,148,105,88,62,15272,2147739474,2148575424,2149254884,2147805312,2147435492,2147957220,2148620242,2148296832,2198,7,12,41053
1343148735,5803,115.4499969482421900,19.4164009094238280,36.5676002502441400,254.2579040527343800,123.4514999389648400,19.4141597747802730,30.0163593292236330,117,150,104,89,64,15261,2147782939,2148651904,2149349851,2147809645,2147445056,2147973604,2148627428,2148297554,2082,7,13,50148
1343148826,5805,111.5400009155273400,19.4617004394531250,36.5694007873535160,254.2335968017578000,122.1772994995117200,19.4530906677246100,30.0006999969482420,135,156,106,91,64,15231,2147833938,2148772928,2149494592,2147816219,2147461449,2147994230,2148660187,2148304731,1733,7,13,64339
1343148920,5804,107.4899978637695300,19.4918994903564450,36.5637016296386700,255.1788024902343800,121.0210037231445300,19.4884204864501950,29.9449405670166000,149,151,106,90,65,15220,2147934674,2148983972,2149799497,2147820397,2147493184,2148046080,2148732105,2148310445,1827,7,12,27072
1343149011,5803,103.4599990844726600,19.5226993560791000,36.5675010681152340,256.3908081054687500,119.9686965942382800,19.5205802917480470,29.8795700073242200,152,149,105,91,63,15216,2148072813,2149298761,2150253357,2147830747,2147534153,2148137380,2148874011,2148323648,2402,7,13,28999
1343149090,5804,99.7699966430664000,19.5512008666992200,36.5679016113281250,257.7023925781250000,119.1289978027343800,19.5462398529052730,29.8126392364501950,163,145,105,89,65,15202,2148239808,2149679552,2150809243,2147842697,2147582034,2148248950,2149047716,2148341001,2778,7,13,40109
1343149145,5803,97.1600036621093800,19.5786991119384770,36.5643997192382800,258.8240966796875000,118.2534027099609400,19.5729999542236330,29.7537994384765620,165,144,104,92,65,15197,2148395501,2150010386,2151272283,2147855094,2147624996,2148339885,2149199725,2148358070,2552,7,13,63065
1343149203,5805,94.4100036621093800,19.6210994720459000,36.5707015991210940,259.6073913574219000,117.2417984008789000,19.6039199829101560,29.7078990936279300,147,144,105,93,64,15207,2148580772,2150403556,2151793600,2147869110,2147686902,2148461595,2149388900,2148380571,2627,7,13,62052
1343149258,5804,91.9800033569336000,19.6462993621826170,36.5698013305664060,259.7594909667969000,116.1703033447265600,19.6366691589355470,29.6877498626709000,149,141,104,90,66,15206,2148800676,2150831396,2152343817,2147884324,2147749449,2148613513,2149602221,2148399085,2975,6,13,31737
1343149313,5802,89.6600036621093800,19.6597995758056640,36.5695991516113300,261.2829895019531000,115.4083023071289000,19.6599693298339840,29.6141300201416000,146,139,106,90,66,15199,2149050596,2151318198,2152947958,2147901787,2147834962,2148779593,2149837988,2148426624,2954,7,12,48846
1343149368,5804,87.4599990844726600,19.6755008697509770,36.5639991760253900,262.7297058105469000,114.7906036376953100,19.6788501739501950,29.5459709167480470,134,138,105,90,65,15197,2149382893,2151923172,2153662619,2147928649,2147932187,2148997568,2150123885,2148453101,3321,7,12,7146
1343149423,5804,85.3300018310546900,19.7311992645263670,36.5647010803222660,264.6878051757812500,113.4019012451171900,19.7213191986084000,29.4473495483398440,116,135,104,89,66,15216,2149742336,2152541760,2154370998,2147954816,2148051620,2149237604,2150428918,2148488073,3581,7,12,2528
1343149478,5804,83.3000030517578100,19.7956008911132800,36.5713996887207000,266.3894042968750000,111.6209030151367200,19.7757797241210940,29.3548908233642580,113,134,105,90,66,15219,2150151670,2153218505,2155123008,2147981961,2148201408,2149509248,2150765129,2148523465,307,7,13,61154
1343149536,5803,81.0999984741211000,19.8558998107910160,36.5707015991210940,267.8181152343750000,109.4424972534179700,19.8424091339111330,29.2689895629882800,107,139,103,89,65,15221,2150620580,2153979830,2155982326,2148021622,2148370377,2149836288,2151157549,2148567003,598,7,13,62637
1343149591,5803,79.0299987792968800,19.8999996185302730,36.5719985961914060,269.4346008300781000,107.8856964111328100,19.8900394439697270,29.1840305328369140,102,138,104,91,64,15224,2151034121,2154644507,2156742080,2148057069,2148536502,2150147794,2151534747,2148603456,604,7,13,33005
1343149646,5803,77.0100021362304700,19.9356002807617200,36.5731010437011700,270.9064941406250000,106.6396026611328100,19.9281597137451170,29.1092796325683600,98,137,105,90,63,15221,2151423030,2155260278,2157454006,2148100315,2148688713,2150437641,2151886025,2148641636,464,7,13,31884
1343149701,5804,75.1699981689453100,19.9722003936767580,36.5745010375976560,271.4454956054687500,105.4699020385742200,19.9639606475830080,29.0729598999023440,99,134,107,89,66,15213,2151820827,2155841380,2158094162,2148141952,2148849481,2150725924,2152211894,2148680237,287,7,13,23276
1343149768,5800,73.3600006103515600,19.9930992126464840,36.5742988586425800,272.5439147949219000,104.6815032958984400,19.9880790710449220,29.0193500518798830,93,141,106,91,65,15209,2152175241,2156336301,2158557202,2148173120,2149006043,2150988297,2152477723,2148711606,3583,7,13,21753
1343149858,5800,71.3000030517578100,20.0666007995605470,36.5765991210937500,273.0914916992187500,102.2233963012695300,20.0633296966552730,28.9668006896972660,88,138,106,90,64,15214,2152987840,2157352210,2159425417,2148238793,2149350034,2151524224,2152984237,2148765129,2901,7,13,44827
1343149913,5802,69.7200012207031200,20.1396999359130860,36.5760002136230500,273.5745849609375000,99.9295806884765600,20.1335506439209000,28.9187908172607420,85,140,108,91,63,15209,2153699145,2158216237,2160105645,2148278811,2149679881,2152000484,2153398966,2148809097,2544,7,13,40873
1343149968,5802,68.4100036621093800,20.2014007568359380,36.5792999267578100,275.1622009277344000,97.9864273071289000,20.1930599212646500,28.8319492340087900,84,142,107,92,61,15206,2154469330,2159080987,2160749220,2148314651,2150027940,2152501430,2153791040,2148849526,2772,7,13,51244
1343150071,5802,66.2600021362304700,20.3083992004394530,36.5749015808105500,276.2106933593750000,94.4953765869140600,20.2999992370605470,28.7472190856933600,81,138,106,90,62,15186,2156094884,2160845997,2162069449,2148399945,2150798948,2153548105,2154622555,2148940644,2626,7,13,56794
1343150161,5805,63.2500000000000000,20.4309997558593750,36.5750999450683600,276.1119079589844000,90.6432037353515600,20.4180507659912100,28.7028408050537100,78,139,107,92,61,15197,2158543186,2163543085,2164361938,2148586084,2151972891,2155143286,2155999414,2149100333,2681,7,12,25472
1343150216,5800,60.3100013732910160,20.6046009063720700,36.5759010314941400,276.0593872070312500,84.6506881713867200,20.6018009185791000,28.6301307678222660,76,140,108,93,62,15187,2160807680,2165998738,2166541714,2148795017,2153124452,2156642139,2157315200,2149264365,2878,7,12,12029
1343150271,5802,57.2099990844726560,20.8656005859375000,36.5749015808105500,276.8746032714844000,78.4195709228515600,20.7929992675781250,28.5208702087402340,73,144,107,93,62,15180,2163231515,2168570066,2168864027,2149053275,2154420507,2158261430,2158721152,2149440996,3139,8,13,64191
1343150326,5803,54.4500007629394500,21.0242996215820300,36.5857009887695300,278.0224914550781000,72.9335403442382800,20.9614601135253900,28.4085597991943360,71,143,109,94,62,15173,2165606189,2171062802,2171158290,2149334043,2155749120,2159900790,2160168740,2149628745,263,7,13,13145
1343150468,5803,49.3699989318847660,21.4491004943847660,36.5945014953613300,281.0049133300781000,58.6404800415039060,21.4009399414062500,28.1183109283447270,71,144,110,93,58,15146,2171028251,2176689234,2176507017,2150134985,2158887094,2163642752,2163442587,2150113179,1071,7,13,13978
1343150505,5802,48.2700004577636700,21.5548992156982420,36.5894012451171900,281.6814880371094000,57.6093101501464840,21.4326801300048830,28.0801792144775400,71,145,107,94,60,15145,2172315721,2178031524,2177800310,2150336685,2159674377,2164567341,2164269083,2150232073,1241,8,13,64079
1343150578,5802,46.7500000000000000,21.6193008422851560,36.5971984863281250,282.2084045410156000,52.3201713562011700,21.5955505371093750,27.9952907562255860,70,146,111,93,60,15163,2174596598,2180481837,2180201682,2150691940,2161005979,2166144777,2165657627,2150445796,1652,7,13,8807
1343150755,5804,44.9700012207031250,21.6749000549316400,36.5968017578125000,283.7030944824219000,49.8724899291992200,21.6709709167480470,27.9094791412353500,69,145,107,92,58,15164,2179452781,2185783360,2185387821,2151441380,2163681115,2169377115,2168647990,2150886774,1793,7,13,41365
1343150864,5801,42.8499984741210940,21.7651004791259770,36.5937004089355500,283.8637084960937500,46.8493804931640600,21.7641506195068360,27.8665409088134770,69,144,108,93,63,15153,2185551945,2192051648,2191405074,2152535689,2167654756,2173852946,2172486208,2151486308,1688,7,13,34347
1343150924,5802,40.4000015258789060,21.9745006561279300,36.5814018249511700,283.6785888671875000,41.9734001159668000,21.9145298004150400,27.8137798309326170,67,147,108,93,59,15158,2190858386,2197243318,2196294866,2153553435,2171594843,2178129298,2175990546,2152051611,1159,8,13,14587
1343150971,5800,38.7400016784668000,22.1296005249023440,36.5807991027832000,282.7391967773437500,36.0158004760742200,22.0984306335449220,27.7761802673339840,67,145,108,93,59,15147,2195004342,2201401225,2200340772,2154456155,2174696850,2181491501,2178760932,2152531291,1219,7,12,32924
1343151057,5804,36.9099998474121100,22.1874008178710940,36.5838012695312500,283.1242980957031000,33.3828392028808600,22.1797599792480470,27.7297992706298830,68,139,109,92,61,15156,2200285650,2206732489,2205548141,2155621650,2178748096,2185914057,2182427812,2153152310,719,7,12,31154
1343151180,5803,34.7700004577636700,22.6072006225585940,36.5418014526367200,280.7470092773437500,20.2324790954589840,22.5864791870117200,27.6586799621582030,66,144,106,92,61,15158,2212068608,2218311497,2216667510,2158322249,2188056182,2195606948,2190355346,2154510912,418,7,13,9036
1343152062,5805,32.6500015258789060,23.9022998809814450,36.4124984741210940,264.7839050292969000,-22.3638591766357420,23.9104690551757800,27.7569694519042970,66,143,109,94,58,15191,2286253888,2299010258,2298846774,2175906916,2252976466,2266894299,2249398262,2163906084,1061,7,12,28989
1343152096,5801,30.7299995422363280,23.9722003936767580,36.4066009521484400,263.8320922851562500,-24.3731098175048830,23.9731903076171880,27.7705307006835940,63,142,107,93,60,15195,2293679003,2305805065,2306094381,2179765019,2262592438,2276225856,2256929042,2165696768,1168,8,13,40848